EST,Max TemperatureF,Mean TemperatureF,Min TemperatureF,Max Dew PointF,MeanDew PointF,Min DewpointF,Max Humidity, Mean Humidity, Min Humidity, Max Sea Level PressureIn, Mean Sea Level PressureIn, Min Sea Level PressureIn, Max VisibilityMiles, Mean VisibilityMiles, Min VisibilityMiles, Max Wind SpeedMPH, Mean Wind SpeedMPH, Max Gust SpeedMPH,PrecipitationIn, CloudCover, Events, WindDirDegrees
2012-1-1,48,37,26,41,34,26,100,80,60,30.04,29.91,29.60,10,6,0,16,4,22,0.09,3,Fog-Rain,179
2012-1-2,43,36,29,43,28,14,100,72,44,29.68,29.58,29.51,10,8,2,21,8,33,0.02,5,Rain,226
2012-1-3,30,18,5,11,2,-6,67,54,41,30.05,29.88,29.69,10,10,10,22,14,30,0.00,1,,308
2012-1-4,23,13,3,4,-2,-6,69,53,36,30.12,30.02,29.89,10,10,10,20,6,24,0.00,3,,285
2012-1-5,36,27,17,22,13,4,69,54,39,29.92,29.82,29.73,10,10,10,18,6,24,0.00,7,,270
2012-1-6,33,24,15,23,19,11,84,73,61,29.92,29.84,29.75,10,9,1,7,2,8,0.01,5,Snow,1
2012-1-7,44,33,22,28,25,22,92,71,49,29.86,29.75,29.66,10,10,7,8,1,10,0.00,2,,290
2012-1-8,41,31,21,25,20,12,92,68,44,30.29,30.11,29.88,10,10,10,18,8,23,0.00,5,,309
2012-1-9,35,25,15,16,13,11,80,62,43,30.31,30.18,29.96,10,10,10,10,3,15,0.00,3,,164
2012-1-10,43,33,23,26,21,13,81,65,49,29.95,29.84,29.74,10,10,10,17,6,23,0.00,5,,250
2012-1-11,34,28,21,26,18,13,78,60,41,30.14,30.09,29.96,10,10,10,9,3,13,0.00,6,,357
2012-1-12,32,29,26,28,26,23,92,85,78,30.08,29.81,29.58,10,4,0,16,8,21,0.34,8,Fog-Snow,41
2012-1-13,36,31,26,32,27,17,100,81,61,29.58,29.37,29.13,10,6,1,28,7,40,0.11,8,Rain-Snow,316
2012-1-14,31,18,5,21,10,-6,74,62,50,30.06,29.80,29.53,10,10,10,20,12,26,0.00,4,,293
2012-1-15,10,5,-1,-7,-8,-11,66,56,46,30.52,30.32,30.06,10,10,10,24,11,32,0.00,0,,308
2012-1-16,30,13,-5,23,3,-7,86,62,37,30.58,30.39,30.08,10,9,2,16,5,23,T,2,Snow,203
2012-1-17,39,33,27,37,31,23,100,86,72,30.07,29.79,29.40,10,4,0,10,3,15,0.22,7,Fog-Rain-Snow,167
2012-1-18,45,29,13,41,16,0,100,69,38,30.17,29.75,29.37,10,9,3,31,17,46,T,3,Rain,283
2012-1-19,27,15,3,22,13,0,96,73,50,30.33,30.12,29.95,10,7,1,15,4,20,0.20,5,Snow,107
2012-1-20,25,16,6,22,12,-2,100,70,40,30.29,30.01,29.90,10,5,0,17,6,24,0.06,3,Fog-Snow,305
2012-1-21,18,9,0,11,6,-2,92,73,53,30.38,30.24,30.16,10,6,0,8,3,9,0.13,6,Snow,351
2012-1-22,24,9,-7,16,4,-9,95,69,42,30.61,30.54,30.41,10,10,8,7,1,9,0.00,2,,119
2012-1-23,32,26,20,32,27,18,100,87,74,30.51,30.15,29.88,10,3,1,8,2,9,0.31,8,Rain-Snow,290
2012-1-24,49,40,31,39,32,24,100,80,60,30.02,29.90,29.84,10,4,0,14,2,18,0.01,7,Fog,277
2012-1-25,37,34,31,25,23,22,72,64,56,30.20,30.15,30.02,10,10,10,18,9,24,0.00,5,,288
2012-1-26,39,34,28,30,24,16,92,66,40,30.22,30.11,29.98,10,6,1,16,5,21,0.13,6,Rain-Snow,147
2012-1-27,38,35,31,35,33,29,100,88,76,29.97,29.58,29.30,10,4,1,24,5,33,1.20,8,Rain,325
2012-1-28,44,38,32,28,25,23,75,60,45,29.99,29.85,29.63,10,10,10,24,8,37,T,3,Rain,264
2012-1-29,40,31,21,25,15,13,74,54,33,30.04,29.98,29.84,10,10,10,23,9,35,0.00,0,,250
2012-1-30,34,26,17,25,18,9,92,65,38,30.29,30.08,29.93,10,8,2,26,7,36,T,5,Snow,299
2012-1-31,31,25,18,27,23,16,96,87,78,30.27,30.15,30.02,10,7,1,7,3,14,0.03,8,Snow,357